軌道要素
Epoch 2020 Apr. 21.0 TT = JDT 2458960.5
T 2020 May 5.72804 TT Rudenko
q 6.5813045 (2000.0) P Q
z +0.0011995 Peri. 319.18994 -0.92230516 -0.22381939
+/-0.0000009 Node 212.39737 +0.19031685 -0.97256449
e 0.9921058 Incl. 36.01642 -0.33635204 +0.06342866
From 664 observations 2019 Jan. 14-2021 May 1, mean residual 0".6.
|